Location: Untermarchtal
(48.2403°N, 9.6117°E)
Time: 19:23:34
(UTC+01:00)

ISS - Pass Details

Date: 12 November 2017
Orbit: 402 x 407 km, 51.6° (Epoch: 24 November)

Event Time Altitude Azimuth Distance (km) Brightness Sun altitude
Exits shadow 05:52:30 35° 301° (WNW) 677 -3.2 -15.3°
Maximum altitude 05:53:44 75° 19° (NNE) 421 -3.8 -15.1°
Drops below altitude 10° 05:57:00 10° 106° (ESE) 1,454 0.4 -14.6°
Sets 05:59:04 0° 108° (ESE) 2,311 1.9 -14.2°
